Location: Newark
(22.6667°N, 131.7500°E)
Time: 08:54:34
(UTC+00:00)

N. Korean satellite - Visible Passes

Search period start: 20 September 2020 00:00
Search period end: 30 September 2020 00:00
Orbit: 455 x 503 km, 97.2° (Epoch: 19 September)

Date Brightness Start Highest point End Pass type
(mag) Time Alt. Az. Time Alt. Az. Time Alt. Az.
20 Sep 8.4 20:12:24 10° NNE 20:15:44 35° E 20:19:01 10° SSE visible
21 Sep 9.8 19:47:40 10° ENE 19:49:41 14° E 19:51:40 10° SE visible
23 Sep 7.1 20:27:29 10° NNE 20:31:03 64° E 20:34:33 10° S visible
24 Sep 9.2 20:02:04 10° NE 20:05:01 24° E 20:07:55 10° SSE visible
27 Sep 8.0 20:16:56 10° NNE 20:20:19 41° E 20:23:38 10° S visible
28 Sep 9.7 19:51:56 10° NE 19:54:15 16° E 19:56:33 10° SE visible
